CZ-6A DEB, 55189

Orbit data source: Space-Track

CZ-6A DEB, 55189 is space debris in SSO originally from a launch on Fri, 11 Nov 2022 UTC launched from the Taiyaun Space Center, China (TSC). Debris objects in space refer to the collection of defunct objects orbiting the Earth. Examples of debris include non-operational satellites, rocket bodies, and fragments generated from explosions, collisions, or faulty payload assembly.

Loading next visibility...
Identifier
55189, 2022-151VE
Orbit
SSO
Country
Flag of CNCN / PRC
Related business
Manufacturer
SAST
Mission
Spacecraft
Bus & Motor
Unknown
Mass
Unknown
Launch date (UTC)
2022-11-11 (4 years ago)
Launch vehicle
Unknown
Launch site
Taiyaun Space Center, China (TSC)
Object type
Payload
Rocket body
Debris
Shape & HBR
Unknown shape, 0.1 m
Radar Cross Section
Medium (>0.1 m² and <1 m²)

Expand to show TLE details & history
Last TLE update: 2 days ago

TLE from 2 days ago
0 CZ-6A DEB
1 55189U 22151VE  26170.98777102  .00002190  00000-0  10556-2 0  9997
2 55189  98.8444 182.0120 0046504 324.6463  35.1632 14.19179794183035
Epoch: 2026-06-19T23:42Z
TLE epoch observation values (Epoch: 2026-06-19T23:42:23.416Z)
Latitude
0.00003°
Longitude
-81.79443°
Altitude
803.687 km
Speed
7.466 km/s
True Right ascension
12h 08m 02s
True Declination
0° 00' 00"
Sunlit
Object was in daylight at epoch
Visualization orbit readout
Latitude
Unknown
Longitude
Unknown
Altitude
Unknown
Speed
Unknown
Apparent Right ascension
Unknown
Apparent Declination
Unknown
Sunlit
N/A
Visualization observer readout
Local Sidereal Time
21:41:20
Azimuth
Unknown
Elevation
Unknown
Doppler factor
Unknown
Orbital elements
Apogee altitude
858.793 km
Perigee altitude
791.795 km
Semi-major axis
7,203.431 km
Eccentricity
0.00465
Inclination
98.8444°
RAAN
182.012°
Arg. of periapsis
324.6463°
True anomaly
35.47156°
Mean anomaly
35.1632°
Eccentric anomaly
35.31723°
Mean motion
3.55005 °/min
Orbital period
101.41 mins
BSTAR
0.0010556
Loading maneuver chart data...
Computing Atmospheric mass density...
Loading historical data...
Loading historical data...
Loading historical data...
Loading historical data...
Loading historical data...
Loading historical data...
Loading historical data...

Documentation

Showing up to 5 results
|